Starlink 11536

operational
NORAD ID: 62563 Int'l Des: 2025-006 Owner: SPXS Country: US Constellation: starlink
LEOCIRCULAR

Über Starlink 11536

Beschreibung wird geladen...

Live-Position

3D-Globus wird geladen...

Nächste Überflüge

Höhenverlauf

Altitude vs Time

uPlot chart will show altitude changes over time

Zweizeiliger Elementsatz

1 62563U 25006K 25350.20317074 .00209512 00000-0 15916-2 0 9997
2 62563 42.9997 282.9872 0001515 259.1177 100.9520 15.70897511 53476
Epoch: 16. Dez. 2025 • Age: 19 hours

Aktueller Status

Höhe 356.8 km
Geschwindigkeit 7.70 km/s
Subsatellitenpunkt 31.11°N, 23.78°W
Startdatum 10. Jan. 2025
Alter 0.9 years
Typ internet

Technische Details

Klassifizierung Payload
Masse 960.00 kg
Trockenmasse 910.00 kg
Gesamtmasse 960.00 kg
Länge 0.30 m
Durchmesser 4.10 m
Spannweite 29.00 m
Form Box + pan
Hersteller SPXS
Bus-Typ Starlink V2MD
Phasenstatus In Orbit
Besitzer/Staat SPXS/US

Große Konstellationen

Loading constellations...